Tracking 30743 objects as of 22-Jun-2025
HD Live streaming from Space Station
objects crossing your sky now

PSLV R/B

Track PSLV R/B now!
10-day predictions


NORAD ID: 28050
Int'l Code: 2003-046B
Perigee: 804.9 km
Apogee: 877.2 km
Inclination: 99.0 °
Period: 101.6 minutes
Semi major axis: 7212 km
RCS: 6.3209 m2 (large)
Launch date: October 17, 2003
Source: India (IND)
Launch site: SRIHARIKOTA (SRI)

Note: This is a ROCKET BODY
Your satellite tracking list
Your tracking list is empty




NASA's NSSDC Master Catalog

Two Line Element Set (TLE):
1 28050U 03046B   25172.37922622  .00000042  00000-0  43078-4 0  9990
2 28050  99.0167 140.0504 0050084 215.2286 308.1638 14.17469702120975
Source of the keplerian elements: AFSPC